Regional Weather Roundup
Issued by NWS Portland, ME

Current Version | Previous Version | Text Only | Print | Product List | Glossary Off
Versions: 1 2 3 4 5 6 7 8 9 10 11 12 13 14 15 16 17 18 19 20 21 22 23 24 25 26 27 28 29 30 31 32 33 34 35 36 37 38 39 40 41 42 43 44 45 46 47 48 49 50
000 ASUS41 KGYX 031310 RWRGYX WEATHER ROUNDUP FOR MAINE AND NEW HAMPSHIRE NATIONAL WEATHER SERVICE GRAY ME 800 AM EST TUE MAR 03 2015 MEZ002-005-006-010-012-015-018-020-021-024-026-027-029-031400- MAINE CITY SKY/WX TMP DP RH WIND PRES REMARKS PORTLAND SUNNY 17 -2 43 CALM 30.37R SANFORD SUNNY 7 -6 56 CALM 30.35R BAR HARBOR SUNNY 16 -4 41 NW6 30.33R WISCASSET SUNNY 17 -5 37 CALM 30.37R ROCKLAND SUNNY 12 1 62 W3 30.35R FRYEBURG SUNNY 8 -6 52 CALM 30.32R LEWISTONAUBURN SUNNY 12 -6 44 N3 30.33R AUGUSTA SUNNY 13 -7 40 W12 30.32R WCI -1 WATERVILLE SUNNY 12 -8 40 W8 30.29S BANGOR SUNNY 10 -7 46 W8 30.32R GREENVILLE N/A 5 -11 47 NW16G24 30.14R WCI -14 MILLINOCKET SUNNY 8 -10 43 NW14 30.25R WCI -8 HOULTON SUNNY 6 -10 47 NW14G21 30.19R WCI -11 PRESQUE ISLE FAIR 3 -20 33 NW13G18 30.19R WCI -14 FRENCHVILLE SUNNY -1 -17 46 NW21G26 30.14R WCI -24 CARIBOU SUNNY 2 -13 49 NW13G24 30.18R WCI -15 $$ NHZ002-005-008-009-011-012-014-031400- NEW HAMPSHIRE CITY SKY/WX TMP DP RH WIND PRES REMARKS PORTSMOUTH MOSUNNY 18 -3 38 W6 30.36R ROCHESTER SUNNY 18 -5 36 VRB3 30.35R NASHUA SUNNY 14 2 59 CALM 30.40R MANCHESTER MOSUNNY 18 2 49 NW5 30.37R CONCORD SUNNY 16 -2 45 NW6 30.37R LACONIA SUNNY 16 -6 38 SW7 30.31R PLYMOUTH FAIR 16 -1 48 W8 30.33R BERLIN MOSUNNY 1 -8 66 CALM 30.26S WHITEFIELD SUNNY -3 -8 79 CALM 30.30R JAFFREY SUNNY 12 0 58 S3 30.32R KEENE SUNNY 9 3 78 CALM 30.37R LEBANON SUNNY 1 -5 75 CALM 30.35R MT WASHINGTON MOSUNNY 0 -27 27 NW56G62 N/A WCI -33 $$ VTZ005-007-008-031400- VERMONT CITY SKY/WX TMP DP RH WIND PRES REMARKS ST JOHNSBURY N/A 2 -5 72 MISG 30.34R MONTPELIER SUNNY 7 -2 66 CALM 30.33R BURLINGTON MOSUNNY 5 -1 76 E3 30.37S $$ MAZ007-012-024-CTZ003-RIZ002-NYZ038-NYZ072-031400- SOUTHERN NEW ENGLAND AND NY CITY SKY/WX TMP DP RH WIND PRES REMARKS BOSTON MOSUNNY 22 3 44 NW12 30.40R WCI 10 WORCESTER SUNNY 16 2 54 W3 30.34R NANTUCKET SUNNY 26 8 46 NW12 30.40R WCI 16 PROVIDENCE MOSUNNY 18 6 59 W7 30.43R HARTFORD MOSUNNY 20 6 55 CALM 30.41R ALBANY PTSUNNY 16 5 62 E3 30.41S NEW YORK CITY PTSUNNY 26 9 48 W3 30.44S $$ ANZ081-ANZ082-ANZ150-NHZ014-MEZ023>029-031400- COASTAL MARINE OBSERVATIONS STATION/POSITION TIME TEMP WIND PRES WAVE AIR SEA DIR/SP/G HT/PER (UTC) (F) (DEG/KT/KT) (MB) (FT/S) MOUNT DESERT ROC 1300 18 1026.3R MATINICUS ROCK 1200 18 300/ 22/ 23 1027.1R WELLS 1200 16 320/ 3/ 4 1027.1R ISLE OF SHOALS 1200 19 300/ 18/ 21 1026.8R JEFFREYS LEDGE 1221 40 N/A 4/ 5 CASHES LEDGE BUO 1250 24 38 1027.0R 4/ 5 $$ .............KEY.............. WCI - WIND CHILL TC - TEMPERATURE IN CELSIUS VSB - VISIBILITY IN MILES HX - HEAT INDEX FAIR- INDICATES FEW OR NO CLOUDS BELOW 12,000 FT, WITH NO SIGNIFICANT WEATHER AND/OR OBSTRUCTIONS TO VISIBILITY.

USA.gov is the U.S. government's official web portal to all federal, state and local government web resources and services.